Weather in Tayna

Russia / Zabaykalsky Krai     51°35′13″N   118°27′18″E
temp.,
°C
wind,
m/s
gust,
m/s
humid.,
%
clouds,
%
prec.,
mm/h
press.,
hPa
HPBL,
m
27 february, sat
sat2700:00−13ese2296100 0.1 101254
03:00−12ese2496100 0.6 1008214
06:00−12nw0097100 2.4 100626
09:00−13wnw51094100 4.9 1007574
12:00−14wnw61190100 0.1 1011722
15:00−12wnw61184100 0.2 10151211
18:00−14wnw51084100 0.1 1019962
21:00−21w129467 0.1 102420
28 february, sun
sun2800:00−18wnw4128094 0.2 1027522
03:00−23w3108962 0.2 1030260
06:00−27wsw22920 0.0 103320
09:00−27wsw12890 0.0 103637
12:00−21w25820 0.0 1036475
15:00−18wnw47780 0.0 1034836
18:00−20wnw39843 0.0 1036460
21:00−26w229618 0.0 103921
1 march, mon
mon100:00−28sw229354 0.0 104119
03:00−30sw229228 0.0 104219
06:00−31ssw22870 0.0 104119
09:00−28ssw228727 0.0 104137
12:00−20wsw248073 0.0 1038410
15:00−17sw248986 0.2 1034663
18:00−17nw2492100 0.4 1032397
21:00−22ssw1192100 0.4 103320
2 march, tue
tue200:00−23s229095 0.0 103224
03:00−24sse229687 0.0 103020
06:00−27se229961 0.0 102819
09:00−25se239981 0.0 1026100
12:00−19sse2493100 0.1 1023333
15:00−15s3489100 0.1 1020511
18:00−18sse2494100 0.0 1018167
21:00−24sse2398100 0.0 101849
3 march, wed
wed300:00−25s239655 0.0 101633
03:00−20ssw129978 0.4 101489
06:00−20ssw1299100 0.4 101320
09:00−18ssw229793 0.4 101261
12:00−12w4889100 0.1 1010938
15:00−11wnw61078100 0.3 10091326
18:00−13nw4794100 0.2 1010579
21:00−20wnw129296 0.2 101320